Regional Weather Roundup
Issued by NWS

Home | Current Version | Previous Version | Text Only | Print | Product List | Glossary On
Versions: 1 2 3 4 5 6 7 8 9 10 11 12 13 14 15 16 17 18 19 20 21 22 23 24 25 26 27 28 29 30 31 32 33 34 35 36 37 38 39 40 41 42 43 44 45 46 47 48 49 50
000
ASUS43 KDTX 130210
RWRMI
MICHIGAN HOURLY REGIONAL WEATHER ROUNDUP
NATIONAL WEATHER SERVICE DETROIT/PONTIAC MI
900 PM EST TUE DEC 12 2017

NOTE: "FAIR" INDICATES FEW OR NO CLOUDS BELOW 12,000 FEET WITH NO
SIGNIFICANT WEATHER AND/OR OBSTRUCTION TO VISIBILITY.

MIZ047>049-052>055-059>063-066>070-074>076-081>083-130300-
SOUTHEAST LOWER MICHIGAN

CITY           SKY/WX    TMP DP  RH WIND       PRES   REMARKS
ADRIAN         MOCLDY    16   3  56 NW9       29.92F WCI   4
ALMA           CLOUDY    16  11  82 W9        29.90F WCI   5
ANN ARBOR      FLURRIES  16   9  74 W7        29.88F WCI   6
BAD AXE        CLOUDY    12   3  67 NW17      29.84F WCI  -5
CARO           PTCLDY    13   4  68 NW10      29.87F WCI   0
DETROIT CITY   MOCLDY    15   2  56 NW6       29.88F WCI   6
DETROIT        MOCLDY    17   7  64 W9        29.90F WCI   6
FLINT          CLOUDY    13   4  67 NW6       29.89S WCI   4
GROSSE ILE     CLOUDY    16   7  69 W9        29.89F WCI   4
HILLSDALE      CLOUDY    18   7  62 NW8       29.89S WCI   7
HOWELL         LGT SNOW  16  11  83 W10       29.88S WCI   3

CITY           SKY/WX    TMP DP  RH WIND       PRES   REMARKS
JACKSON        CLOUDY    17   3  54 W9        29.90S WCI   6
LAMBERTVILLE   PTCLDY    14   3  61 W3        29.92F
LANSING        CLOUDY    17   8  67 W8        29.91S WCI   7
LAPEER         FAIR      12   1  61 NW9       29.86F WCI  -1
MASON          CLOUDY    17   4  57 W6        29.90S WCI   8
MONROE         CLOUDY    15   7  68 W7        29.90F WCI   6
MT. CLEMENS    PTCLDY    14   1  57 NW15      29.85S WCI  -2
PONTIAC        CLOUDY    13   5  70 NW10      29.85S WCI   0
PORT HOPE        N/A     17   9  70 NW21G36   29.81S WCI   0
PORT HURON     CLEAR     12   0  57 NW10      29.84F WCI  -1
TRI CITIES     CLOUDY    15   6  67 NW8       29.90F WCI   4
MIDLAND        CLOUDY    16   6  65 NW5       29.90S WCI   8
TROY           CLOUDY    16   4  57 W6        29.89F WCI   8
SAGINAW HB     CLOUDY    14   7  73 NW7       29.89F WCI   4
$$
MIZ043>046-050>051-056>058-064>065-071>073-077>080-130300-
SOUTHWEST LOWER MICHIGAN

CITY           SKY/WX    TMP DP  RH WIND       PRES   REMARKS
BATTLE CREEK   CLOUDY    17   8  67 NW6       29.92F WCI   9
BENTON HARBOR  CLOUDY    24  12  60 VRB6      29.96F WCI  17
BIG RAPIDS     CLOUDY    15  10  80 W6        29.88F WCI   6
COLDWATER      CLOUDY    18  11  75 NW5       29.93S WCI  11
FREMONT        CLOUDY    17  11  79 W3        29.92F
HOLLAND        LGT SNOW  18  15  88 N3        29.95S FOG
GRAND RAPIDS   CLOUDY    18  11  74 NW10      29.93S WCI   6
IONIA          CLOUDY    18  10  70 W6        29.91S WCI   9
KALAMAZOO      FLURRIES  17  12  80 NW7       29.94S WCI   8
LUDINGTON      CLOUDY    20   8  60 NW6       29.92F WCI  12
MARSHALL       CLOUDY    16   7  66 NW5       29.91F WCI   9
MOUNT PLEASANT FLURRIES  17  10  74 NW5       29.89S WCI  10
MUSKEGON       LGT SNOW  20  12  71 N6        29.95F WCI  12
SOUTH HAVEN    CLOUDY    24  11  58 NW6       29.96S WCI  17
$$
MIZ016>042-130300-
NORTHERN LOWER MICHIGAN

CITY           SKY/WX    TMP DP  RH WIND       PRES   REMARKS
ALPENA         LGT SNOW  11   5  77 NW8       29.86S WCI  -1
BEAVER ISLAND  CLOUDY    15   6  67 N6        29.90F WCI   7
BELLAIRE       CLOUDY    16   8  71 N6        29.90F WCI   7
CADILLAC       CLOUDY    12   8  84 W3        29.84S
CHARLEVOIX     CLOUDY    17   6  63 NW14G24   29.92F WCI   2
FRANKFORT      CLOUDY    21   8  57 NW8       29.91F WCI  11
GAYLORD        CLOUDY     9   1  70 VRB6      29.82F WCI  -1
GRAYLING       FLURRIES  10   4  75 N6        29.85S WCI   0
HARBOR SPRINGS CLOUDY    12   3  65 NW3       29.89F
HOUGHTON LAKE  CLOUDY     9   4  80 W6        29.85S WCI  -1
MANISTEE       FLURRIES  19  10  68 NW10      29.91F WCI   7
OSCODA         CLEAR      8  -3  62 NW8       29.86S WCI  -5
PELLSTON       CLOUDY    12   3  67 NW12      29.90F WCI  -2
ROGERS CITY    CLOUDY    13   5  73 N15G22    29.87S WCI  -3
TRAVERSE CITY  SNOW      18  14  84 N8        29.89F VSB 1/2 WCI   8
$$
MIZ007>008-015-130300-
EASTERN UPPER MICHIGAN

CITY           SKY/WX    TMP DP  RH WIND       PRES   REMARKS
KINROSS        PTCLDY    -2  -8  78 NE9       29.88F WCI -18
MACKINAC ISLAN LGT SNOW  11   5  79 N6        29.88S WCI   1
NEWBERRY       CLOUDY     9   7  92 CALM      29.87F
S. S. MARIE    CLEAR      0  -8  69 N8        29.90F WCI -14
MUNISING         N/A     13   9  84 W8        29.89F WCI   2
$$
MIZ004>006-011>014-085-130300-
CENTRAL UPPER MICHIGAN

CITY           SKY/WX    TMP DP  RH WIND       PRES   REMARKS
MANISTIQUE     FLURRIES  11   5  74 W5        29.90F WCI   3
ESCANABA       PTCLDY     9   1  70 W3        29.93F
MENOMINEE      CLOUDY     7   3  84 CALM      29.95F
SAWYER-GWINN   CLOUDY    10   3  72 NW9       29.87F WCI  -2
$$
MIZ001>003-009>011-084-130300-
WESTERN UPPER MICHIGAN

CITY           SKY/WX    TMP DP  RH WIND       PRES   REMARKS
IRON MOUNTAIN  CLOUDY     9   2  73 CALM      29.87F
HOUGHTON       CLOUDY    11   5  77 CALM      29.86S
COPPER HARBOR    N/A     12   7  80 VRB3      29.89F
IRONWOOD       CLOUDY    11   4  73 S5        29.84F WCI   3
$$

ABBREVIATIONS USED IN REMARKS
   TC - TEMPERATURE IN CELSIUS
  WCI - WIND CHILL INDEX
   HX - HEAT INDEX
  VSB - VISIBILITY





USA.gov is the U.S. government's official web portal to all federal, state and local government web resources and services.